Torna al catalogo

STARLINK-11372

AttivoComunicazioniVLEO
NORAD 61576·PAYLOAD·🇺🇸 United States

Lanciato Oct 18, 2024 da Cape Canaveral Space Force Station

Loading…

Prossimi Passaggi (prossime 24 ore)

TLE

AggiornatoSource: CelesTrak SupGP

Epoca: Sep 14, 2026, 22:32 UTC

1 61576C 24187C   26257.93937500  .00104330  00000+0  85875-3 0  2578
2 61576  53.1572  83.2324 0001149  56.6319   5.8103 15.69675438    19

Traccia STARLINK-11372 in tempo reale con AllMySat

Download on the App Store